Location: Ku?niki
(51.4449°N, 17.8974°E)
Time: 07:30:51
(UTC+00:00)

Resurs 01 Rocket - Pass Details

Date: 18 September 2020
Orbit: 633 x 645 km, 98.0° (Epoch: 22 October)

Event Time Altitude Azimuth Distance (km) Brightness Sun altitude
Exits shadow 17:41:42 10° 95° (E) 2,055 3.6 -8.0°
Reaches altitude 10° 17:41:43 10° 95° (E) 2,048 3.6 -8.0°
Maximum altitude 17:44:29 16° 57° (ENE) 1,661 3.4 -8.4°
Drops below altitude 10° 17:47:16 10° 18° (NNE) 2,054 4.2 -8.9°
Sets 17:50:10 0° 358° (N) 2,967 5.3 -9.3°
